FW7886 Weather Reports


Display with metric or nautical units.
time (UTC)temp
F
wind
direction
speed
MPH
gust
MPH
rain 1hr
in
rain 24hr
in
rain mn
in
humidity
%
barometer
mb
20260901052027 78 168 0.0 1.0 0.00 0.00 0.00 100 1015.1
20260901051524 78 168 0.0 1.0 0.00 0.00 0.00 100 1015.1
20260901051025 78 156 0.0 1.0 0.00 0.00 0.00 100 1015.2
20260901050519 78 177 0.0 1.0 0.00 0.00 0.00 100 1015.1
20260901050510 78 176 0.0 0.0 0.00 0.00 0.00 100 1015.2
20260901045519 78 176 1.0 5.0 0.00 0.00 0.00 100 1015.2
20260901045242 78 179 1.0 5.0 0.00 0.00 0.00 100 1015.3
20260901045010 78 186 0.0 3.0 0.00 0.00 0.00 100 1015.5
20260901044016 78 150 0.0 1.0 0.00 0.00 0.00 100 1015.4
20260901043738 78 150 0.0 1.0 0.00 0.00 0.00 100 1015.3
20260901043239 78 150 0.0 3.0 0.00 0.00 0.00 100 1015.3
20260901042512 78 150 0.0 3.0 0.00 0.00 0.00 100 1015.4
20260901042235 78 149 0.0 1.0 0.00 0.00 0.00 100 1015.4
20260901041513 78 165 0.0 1.0 0.00 0.00 0.00 100 1015.3
20260901041239 78 164 0.0 1.0 0.00 0.00 0.00 100 1015.4
20260901040515 78 164 0.0 1.0 0.00 0.00 0.00 100 1015.4
20260901040232 78 145 0.0 1.0 0.00 0.00 0.00 100 1015.4
20260901035506 78 180 0.0 1.0 0.00 0.00 0.00 100 1015.3
20260901034959 78 183 0.0 1.0 0.00 0.00 0.00 100 1015.4
20260901034454 78 174 0.0 3.0 0.00 0.00 0.00 100 1015.4
20260901033948 78 191 0.0 3.0 0.00 0.00 0.00 100 1015.3
20260901033700 78 151 0.0 3.0 0.00 0.00 0.00 100 1015.1
20260901032936 78 184 0.0 3.0 0.00 0.00 0.00 100 1014.9
20260901032430 78 177 0.0 1.0 0.00 0.00 0.00 100 1015.0
20260901031924 78 177 0.0 1.0 0.00 0.00 0.00 100 1014.9
20260901031418 78 183 0.0 1.0 0.00 0.00 0.00 100 1015.0
20260901031137 78 156 0.0 0.0 0.00 0.00 0.00 100 1015.0
20260901030628 78 191 0.0 0.0 0.00 0.00 0.00 100 1014.9
20260901025900 78 191 0.0 1.0 0.00 0.00 0.00 100 1015.0
20260901025354 78 191 0.0 1.0 0.00 0.00 0.00 100 1014.9
20260901024848 78 196 0.0 1.0 0.00 0.00 0.00 100 1015.0
20260901024342 78 160 0.0 3.0 0.00 0.00 0.00 100 1015.0
20260901024100 78 201 0.0 3.0 0.00 0.00 0.00 100 1014.9
20260901023331 78 186 0.0 1.0 0.00 0.00 0.00 100 1014.9
20260901022824 78 177 0.0 1.0 0.00 0.00 0.00 100 1014.8
20260901022626 78 151 0.0 1.0 0.00 0.00 0.00 100 1014.9
20260901022543 78 139 0.0 1.0 0.00 0.00 0.00 100 1015.0
20260901021307 78 178 0.0 1.0 0.00 0.00 0.00 100 1015.0
20260901020800 78 171 0.0 1.0 0.00 0.00 0.00 100 1015.0
20260901020254 78 106 0.0 1.0 0.00 0.00 0.00 100 1014.9
20260901015748 79 101 0.0 1.0 0.00 0.00 0.00 100 1014.7
20260901015242 79 158 0.0 1.0 0.00 0.00 0.00 100 1014.7
20260901014736 79 109 0.0 1.0 0.00 0.00 0.00 100 1014.6
20260901014453 79 86 0.0 1.0 0.00 0.00 0.00 99 1014.7
20260901013724 79 124 0.0 1.0 0.00 0.00 0.00 99 1014.6
20260901013217 79 91 0.0 1.0 0.00 0.00 0.00 99 1014.6
20260901012712 79 85 0.0 1.0 0.00 0.00 0.00 98 1014.5
20260901012206 79 133 0.0 3.0 0.00 0.00 0.00 98 1014.3
20260901011700 80 228 0.0 3.0 0.00 0.00 0.00 97 1014.3
20260901011419 80 219 0.0 3.0 0.00 0.00 0.00 97 1014.1
20260901010648 80 172 0.0 3.0 0.00 0.00 0.00 96 1014.1
20260901010148 81 180 0.0 3.0 0.00 0.00 0.00 94 1014.2
20260901005648 82 127 0.0 3.0 0.00 0.00 0.00 92 1014.2
20260901005148 82 199 0.0 3.0 0.00 0.00 0.00 90 1014.2
20260901004649 84 263 0.0 3.0 0.00 0.00 0.00 87 1014.3
20260901004410 84 182 0.0 3.0 0.00 0.00 0.00 85 1014.1
20260901003647 84 156 0.0 4.0 0.00 0.00 0.00 83 1014.1
20260901003145 85 173 1.0 4.0 0.00 0.00 0.00 83 1014.1
20260901002643 85 253 1.0 4.0 0.00 0.00 0.00 83 1014.2
20260901002143 85 289 1.0 4.0 0.00 0.00 0.00 82 1014.1
20260901001915 85 140 1.0 5.0 0.00 0.00 0.00 81 1014.2
20260901001145 85 265 1.0 5.0 0.00 0.00 0.00 81 1014.2
20260901000644 85 198 1.0 4.0 0.00 0.00 0.00 80 1014.3
20260901000143 86 244 1.0 5.0 0.00 0.00 0.00 80 1014.2
20260831235916 86 237 1.0 9.0 0.00 0.00 0.00 79 1014.4
20260831235144 86 279 1.0 9.0 0.00 0.00 0.00 80 1014.4
20260831234645 86 294 3.0 8.0 0.00 0.00 0.00 79 1014.7
20260831234405 87 317 4.0 10.0 0.00 0.00 0.00 79 1014.7
20260831233639 87 301 3.0 10.0 0.00 0.00 0.00 77 1014.7
20260831233138 87 279 1.0 8.0 0.00 0.00 0.00 77 1014.7
20260831232637 87 254 3.0 5.0 0.00 0.00 0.00 76 1014.6
20260831232136 87 320 4.0 10.0 0.00 0.00 0.00 76 1014.6
20260831231635 87 286 4.0 10.0 0.00 0.00 0.00 75 1014.7
20260831231134 88 293 4.0 10.0 0.00 0.00 0.00 75 1014.7
20260831230631 88 262 4.0 9.0 0.00 0.00 0.00 74 1014.7
20260831230131 88 264 4.0 11.0 0.00 0.00 0.00 75 1014.8
20260831225633 88 268 4.0 11.0 0.00 0.00 0.00 74 1014.7
20260831225136 88 148 5.0 13.0 0.00 0.00 0.00 74 1014.7
20260831224631 89 279 5.0 13.0 0.00 0.00 0.00 73 1014.7
20260831224131 89 300 5.0 13.0 0.00 0.00 0.00 73 1014.7
20260831223632 89 251 5.0 11.0 0.00 0.00 0.00 73 1014.6
20260831223130 89 305 4.0 11.0 0.00 0.00 0.00 73 1014.5
20260831222625 89 334 4.0 10.0 0.00 0.00 0.00 75 1014.6
20260831222124 89 267 3.0 10.0 0.00 0.00 0.00 75 1014.5
20260831221856 89 285 3.0 6.0 0.00 0.00 0.00 75 1014.5
20260831221122 89 281 4.0 10.0 0.00 0.00 0.00 74 1014.6
20260831220622 89 298 4.0 10.0 0.00 0.00 0.00 76 1014.6
20260831220122 89 256 4.0 9.0 0.00 0.00 0.00 75 1014.7
20260831215623 89 229 3.0 11.0 0.00 0.00 0.00 74 1014.7
20260831215123 89 264 4.0 11.0 0.00 0.00 0.00 75 1014.8
20260831214624 88 310 4.0 9.0 0.00 0.00 0.00 76 1014.7
20260831214122 89 251 4.0 8.0 0.00 0.00 0.00 75 1014.6
20260831213623 89 301 4.0 9.0 0.00 0.00 0.00 76 1014.6
20260831213123 89 312 3.0 9.0 0.00 0.00 0.00 75 1014.7
20260831212621 88 296 4.0 13.0 0.00 0.00 0.00 74 1014.8
20260831212121 88 203 4.0 13.0 0.00 0.00 0.00 74 1014.8
20260831211621 88 296 4.0 11.0 0.00 0.00 0.00 75 1015.0
20260831211121 88 329 4.0 9.0 0.00 0.00 0.00 76 1014.9
20260831210621 88 274 3.0 9.0 0.00 0.00 0.00 75 1014.9
20260831210122 88 223 3.0 6.0 0.00 0.00 0.00 75 1014.8
20260831205616 88 208 3.0 10.0 0.00 0.00 0.00 75 1015.0
20260831205340 88 150 4.0 11.0 0.00 0.00 0.00 76 1014.9
20260831204604 88 215 6.0 14.0 0.00 0.00 0.00 75 1015.0
20260831204058 89 260 8.0 14.0 0.00 0.00 0.00 75 1015.2
20260831203814 90 337 6.0 14.0 0.00 0.00 0.00 73 1015.1
20260831203046 90 244 6.0 14.0 0.00 0.00 0.00 75 1015.1
20260831202540 90 288 5.0 14.0 0.00 0.00 0.00 73 1015.3
20260831202034 90 348 5.0 13.0 0.00 0.00 0.00 73 1015.4
20260831201756 91 5 5.0 11.0 0.00 0.00 0.00 73 1015.3
20260831201022 91 312 4.0 11.0 0.00 0.00 0.00 74 1015.2
20260831200521 91 306 4.0 16.0 0.00 0.00 0.00 72 1015.4
20260831200021 91 301 5.0 16.0 0.00 0.00 0.00 74 1015.3
20260831195520 91 303 5.0 13.0 0.00 0.01 0.00 71 1015.3
20260831195240 91 99 5.0 14.0 0.00 0.01 0.00 70 1015.2
20260831194521 91 310 8.0 15.0 0.00 0.01 0.00 72 1015.2
20260831194019 91 276 8.0 15.0 0.00 0.01 0.00 70 1015.1
20260831193747 90 345 6.0 15.0 0.00 0.01 0.00 71 1015.1
20260831193235 91 345 5.0 14.0 0.00 0.01 0.00 71 1015.3
20260831192515 90 284 4.0 10.0 0.00 0.01 0.00 73 1015.6
20260831192016 90 242 5.0 10.0 0.00 0.01 0.00 73 1015.4
20260831191515 89 300 5.0 11.0 0.00 0.01 0.00 74 1015.5
20260831191015 90 89 4.0 11.0 0.00 0.01 0.00 72 1015.7
20260831190511 90 258 4.0 10.0 0.00 0.01 0.00 71 1015.7
20260831190013 90 315 4.0 10.0 0.00 0.01 0.00 71 1015.7
20260831185511 91 294 3.0 9.0 0.00 0.01 0.00 70 1015.8
20260831185011 91 192 4.0 14.0 0.00 0.01 0.00 70 1015.6
20260831184514 90 182 5.0 15.0 0.00 0.01 0.00 71 1015.5
20260831184009 89 335 5.0 15.0 0.00 0.01 0.00 72 1015.7
20260831183504 89 284 4.0 10.0 0.00 0.01 0.00 77 1015.6
20260831182956 89 234 3.0 10.0 0.00 0.01 0.00 76 1015.8
20260831182452 88 135 4.0 11.0 0.00 0.01 0.00 78 1015.8
20260831181945 88 310 4.0 11.0 0.00 0.01 0.00 79 1016.0
20260831181438 88 317 5.0 11.0 0.00 0.01 0.00 79 1016.1
20260831180933 87 297 6.0 15.0 0.00 0.01 0.00 77 1016.0
20260831180427 87 307 6.0 15.0 0.00 0.01 0.00 76 1016.1
20260831175921 88 289 6.0 14.0 0.00 0.01 0.00 75 1016.0
20260831175415 88 306 6.0 14.0 0.00 0.01 0.00 75 1016.1
20260831174909 89 292 8.0 15.0 0.00 0.01 0.00 73 1016.2
20260831174403 89 313 9.0 15.0 0.00 0.01 0.00 74 1016.3
20260831173857 89 307 10.0 19.0 0.00 0.01 0.00 73 1016.2
20260831173351 89 296 10.0 19.0 0.00 0.01 0.00 73 1016.3
20260831172845 89 325 8.0 16.0 0.00 0.01 0.00 73 1016.3
20260831172339 90 293 5.0 13.0 0.00 0.01 0.00 74 1016.2
20260831171834 91 244 4.0 13.0 0.00 0.01 0.00 74 1016.3
20260831171327 91 245 3.0 9.0 0.00 0.01 0.00 72 1016.5
20260831170821 91 172 3.0 8.0 0.00 0.01 0.00 73 1016.5
20260831170315 91 119 3.0 10.0 0.00 0.01 0.00 74 1016.5
20260831165808 91 208 3.0 10.0 0.00 0.01 0.00 73 1016.4
20260831165305 91 316 3.0 9.0 0.00 0.01 0.00 74 1016.3
20260831164757 91 89 3.0 9.0 0.00 0.01 0.00 73 1016.5
20260831164251 90 141 3.0 10.0 0.00 0.01 0.00 75 1016.6
20260831163745 90 173 3.0 10.0 0.00 0.01 0.00 76 1016.6
20260831163243 91 183 4.0 10.0 0.00 0.01 0.00 76 1016.7
20260831163226 91 135 3.0 10.0 0.00 0.01 0.00 74 1016.7
20260831162242 91 275 1.0 6.0 0.00 0.01 0.00 76 1016.7
20260831161743 90 272 1.0 6.0 0.00 0.01 0.00 78 1016.8
20260831161242 89 274 1.0 6.0 0.00 0.01 0.00 81 1016.7
20260831160739 88 265 1.0 6.0 0.00 0.01 0.00 81 1016.9
20260831160238 88 275 1.0 6.0 0.00 0.01 0.00 82 1016.7
20260831160002 87 166 1.0 6.0 0.00 0.01 0.00 82 1016.6
20260831155239 88 284 1.0 5.0 0.00 0.01 0.00 83 1016.7
20260831154740 88 167 1.0 5.0 0.00 0.01 0.00 82 1016.8
20260831154240 88 267 3.0 6.0 0.00 0.01 0.00 81 1016.6
20260831153737 88 154 3.0 6.0 0.00 0.01 0.00 83 1016.7
20260831153458 88 298 1.0 6.0 0.00 0.01 0.00 82 1016.8
20260831152736 88 192 1.0 6.0 0.00 0.01 0.00 82 1016.8
20260831152239 87 168 1.0 6.0 0.00 0.01 0.00 82 1016.6
20260831151739 87 317 1.0 9.0 0.00 0.01 0.00 84 1016.6
20260831151452 87 130 1.0 9.0 0.00 0.01 0.00 82 1016.7
20260831150726 87 173 3.0 8.0 0.00 0.01 0.00 83 1016.6
20260831150220 87 211 3.0 6.0 0.00 0.01 0.00 86 1016.8
20260831145714 86 324 1.0 6.0 0.00 0.01 0.00 86 1016.9
20260831145209 86 297 1.0 5.0 0.00 0.01 0.00 88 1016.7
20260831144702 85 181 1.0 4.0 0.00 0.01 0.00 87 1016.7
20260831144156 85 189 1.0 6.0 0.00 0.01 0.00 87 1016.7
20260831143923 85 142 1.0 6.0 0.00 0.01 0.00 88 1016.7
20260831143146 85 179 1.0 5.0 0.00 0.01 0.00 88 1016.7
20260831142902 85 114 1.0 4.0 0.00 0.01 0.00 89 1016.5
20260831142742 85 165 1.0 5.0 0.00 0.01 0.00 89 1016.6
20260831141647 84 260 1.0 6.0 0.00 0.01 0.00 89 1016.4
20260831141146 84 129 1.0 6.0 0.00 0.01 0.00 90 1016.4
20260831140650 84 323 1.0 6.0 0.00 0.01 0.00 90 1016.5
20260831140147 84 235 3.0 6.0 0.00 0.01 0.00 91 1016.5
20260831135647 84 149 1.0 6.0 0.00 0.01 0.00 90 1016.3
20260831135148 85 272 1.0 5.0 0.00 0.01 0.00 89 1016.3
20260831134648 85 278 1.0 4.0 0.00 0.01 0.00 90 1016.2
20260831134146 84 201 1.0 4.0 0.00 0.01 0.00 91 1016.0
20260831133910 84 308 1.0 4.0 0.00 0.01 0.00 90 1015.9
20260831133146 83 183 0.0 3.0 0.00 0.01 0.00 92 1016.0
20260831132648 83 217 0.0 3.0 0.00 0.01 0.00 92 1015.8
20260831132148 82 105 0.0 3.0 0.00 0.01 0.00 94 1015.7
20260831131644 82 165 0.0 5.0 0.00 0.01 0.00 95 1015.8
20260831131143 81 191 0.0 5.0 0.00 0.01 0.00 96 1015.7
20260831130642 80 144 0.0 3.0 0.00 0.01 0.00 97 1015.7
20260831130143 80 153 0.0 3.0 0.00 0.01 0.00 99 1015.9
20260831125644 79 149 0.0 3.0 0.00 0.01 0.00 99 1015.9
20260831125144 79 156 0.0 1.0 0.00 0.01 0.00 100 1015.8
20260831124905 78 154 0.0 3.0 0.00 0.01 0.00 100 1016.0
20260831124402 78 161 0.0 3.0 0.00 0.01 0.00 100 1015.9
20260831123645 78 146 0.0 0.0 0.00 0.01 0.00 100 1015.8
20260831123143 77 146 0.0 0.0 0.00 0.01 0.00 100 1015.7
20260831122644 77 146 0.0 0.0 0.00 0.01 0.00 100 1015.7
20260831122142 77 144 0.0 1.0 0.00 0.01 0.00 100 1015.7
20260831121643 77 144 0.0 1.0 0.00 0.01 0.00 100 1015.6
20260831121143 77 144 0.0 1.0 0.00 0.01 0.00 100 1015.5
20260831120643 76 144 0.0 0.0 0.00 0.01 0.00 100 1015.5
20260831120409 76 144 0.0 0.0 0.00 0.01 0.00 100 1015.4
20260831115642 76 144 0.0 0.0 0.00 0.01 0.00 100 1015.4
20260831115143 76 144 0.0 0.0 0.00 0.01 0.00 100 1015.4
20260831114644 76 118 0.0 1.0 0.00 0.01 0.00 100 1015.3
20260831114402 76 161 0.0 1.0 0.00 0.01 0.00 100 1015.3
20260831113644 76 161 0.0 0.0 0.00 0.01 0.00 100 1015.3
20260831113146 76 162 0.0 0.0 0.00 0.01 0.00 100 1015.2
20260831112644 76 162 0.0 0.0 0.00 0.01 0.00 100 1015.1
20260831112143 76 162 0.0 0.0 0.00 0.01 0.00 100 1015.0
20260831111644 76 161 0.0 0.0 0.00 0.01 0.00 100 1015.2
20260831111142 76 161 0.0 0.0 0.00 0.01 0.00 100 1015.1
20260831110640 76 161 0.0 0.0 0.00 0.01 0.00 100 1014.9
20260831110138 76 162 0.0 0.0 0.00 0.01 0.00 100 1015.0
20260831105639 76 162 0.0 0.0 0.00 0.01 0.00 100 1015.0
20260831105138 76 161 0.0 0.0 0.00 0.01 0.00 100 1014.8
20260831104637 76 162 0.0 0.0 0.00 0.01 0.00 100 1014.8
20260831104137 76 162 0.0 0.0 0.00 0.01 0.00 100 1014.7
20260831103640 76 162 0.0 0.0 0.00 0.01 0.00 100 1014.7
20260831103134 76 161 0.0 0.0 0.00 0.01 0.00 100 1014.8
20260831102629 77 161 0.0 0.0 0.00 0.01 0.00 100 1014.8
20260831102342 77 162 0.0 0.0 0.00 0.01 0.00 100 1014.6
20260831101841 76 162 0.0 0.0 0.00 0.01 0.00 100 1014.6
20260831101110 76 161 0.0 0.0 0.00 0.01 0.00 100 1014.6
20260831100604 76 162 0.0 0.0 0.00 0.01 0.00 100 1014.6
20260831100058 76 162 0.0 0.0 0.00 0.01 0.00 100 1014.5
20260831095552 76 162 0.0 1.0 0.00 0.01 0.00 100 1014.5
20260831095046 76 161 0.0 1.0 0.00 0.01 0.00 100 1014.4
20260831094540 76 166 0.0 0.0 0.00 0.01 0.00 100 1014.7
20260831094034 76 166 0.0 0.0 0.00 0.01 0.00 100 1014.6
20260831093528 76 166 0.0 0.0 0.00 0.01 0.00 100 1014.5
20260831093249 76 166 0.0 0.0 0.00 0.01 0.00 100 1014.5
20260831092515 76 166 0.0 0.0 0.00 0.01 0.00 100 1014.5
20260831092010 76 166 0.0 0.0 0.00 0.01 0.00 100 1014.5
20260831091504 76 175 0.0 0.0 0.00 0.01 0.00 100 1014.7
20260831091000 76 175 0.0 0.0 0.00 0.01 0.00 100 1014.7
20260831090451 76 172 0.0 0.0 0.00 0.01 0.00 100 1014.5
20260831085946 76 172 0.0 3.0 0.00 0.01 0.00 100 1014.6
20260831085440 76 245 0.0 3.0 0.00 0.01 0.00 100 1014.5
20260831084933 76 165 0.0 1.0 0.00 0.01 0.00 100 1014.5
20260831084428 76 165 0.0 0.0 0.00 0.01 0.00 100 1014.4
20260831084405 76 165 0.0 0.0 0.00 0.01 0.00 100 1014.4
20260831083416 76 165 0.0 0.0 0.00 0.01 0.00 100 1014.3
20260831082910 76 165 0.0 0.0 0.00 0.01 0.00 100 1014.2
20260831082404 76 165 0.0 0.0 0.00 0.01 0.00 100 1014.2
20260831082350 76 165 0.0 0.0 0.00 0.01 0.00 100 1014.1
20260831081352 76 165 0.0 0.0 0.00 0.01 0.00 100 1014.3
20260831080847 76 165 0.0 0.0 0.00 0.01 0.00 100 1014.5
20260831080341 76 165 0.0 0.0 0.00 0.01 0.00 100 1014.5
20260831075834 76 165 0.0 0.0 0.00 0.01 0.00 100 1014.5
20260831075549 76 165 0.0 0.0 0.00 0.01 0.00 100 1014.6
20260831074822 76 165 0.0 0.0 0.00 0.01 0.00 100 1014.5
20260831074316 76 165 0.0 0.0 0.00 0.01 0.00 100 1014.4
20260831073810 77 165 0.0 0.0 0.00 0.01 0.00 100 1014.4
20260831073535 77 165 0.0 0.0 0.00 0.01 0.00 100 1014.5
20260831072758 77 165 0.0 0.0 0.00 0.01 0.00 100 1014.5
20260831072252 77 165 0.0 0.0 0.00 0.01 0.00 100 1014.5
20260831071746 77 165 0.0 0.0 0.00 0.01 0.00 100 1014.5
20260831071240 77 165 0.0 0.0 0.00 0.01 0.00 100 1014.5
20260831070734 77 165 0.0 0.0 0.00 0.01 0.00 100 1014.6
20260831070450 77 165 0.0 0.0 0.00 0.01 0.00 100 1014.9
20260831065721 77 165 0.0 0.0 0.00 0.01 0.00 100 1015.0
20260831065447 77 165 0.0 0.0 0.00 0.01 0.00 100 1014.9
20260831064710 77 165 0.0 0.0 0.00 0.01 0.00 100 1015.0
20260831064204 77 165 0.0 0.0 0.00 0.01 0.00 100 1014.9
20260831063657 77 165 0.0 0.0 0.00 0.01 0.00 100 1015.0
20260831063151 77 165 0.0 0.0 0.00 0.01 0.00 100 1015.0
20260831062646 77 165 0.0 0.0 0.00 0.01 0.00 100 1015.1
20260831062144 77 165 0.0 0.0 0.00 0.01 0.00 100 1015.2
20260831061644 77 165 0.0 0.0 0.00 0.01 0.00 100 1015.2
20260831061144 77 165 0.0 0.0 0.00 0.01 0.00 100 1015.3
20260831060643 77 165 0.0 0.0 0.00 0.01 0.00 100 1015.4
20260831060143 77 165 0.0 0.0 0.00 0.01 0.00 100 1015.2
20260831055644 77 163 0.0 0.0 0.00 0.01 0.00 100 1015.1
20260831055225 77 151 0.0 3.0 0.00 0.01 0.00 100 1015.1
20260831055142 77 154 0.0 0.0 0.00 0.01 0.00 100 1015.2
20260831054914 77 170 0.0 3.0 0.00 0.02 0.00 100 1015.1
20260831053641 77 177 0.0 0.0 0.00 0.02 0.00 100 1015.2
20260831053142 77 172 0.0 0.0 0.00 0.02 0.00 100 1015.2
20260831052639 77 172 0.0 0.0 0.00 0.02 0.00 100 1015.2
20260831052623 77 172 0.0 0.0 0.00 0.02 0.00 100 1015.2